• In Hungary
  • List of Countries
  • For 7 days
  • Water Temperature
  • Satellite Maps
  • Weather Map
  • News
  • Weather Widgets
  • user-avatar
    Login

    Hourly Weather Taoudenni

    Today, 25 September, Tuesday

    Time Temperature Precipitation Wind Pressure Humidity
    00:00 +42°C° 0 mm 3 mps 745 mmHg 16%
    01:00 +40°C° 0 mm 3 mps 745 mmHg 17%
    02:00 +40°C° 0 mm 3 mps 745 mmHg 17%
    03:00 +39°C° 0 mm 3 mps 745 mmHg 18%
    04:00 +39°C° 0 mm 3 mps 745 mmHg 19%
    05:00 +38°C° 0 mm 3 mps 745 mmHg 19%
    06:00 +38°C° 0 mm 3 mps 745 mmHg 20%
    07:00 +39°C° 0 mm 3 mps 746 mmHg 19%
    08:00 +40°C° 0 mm 3 mps 746 mmHg 17%
    09:00 +42°C° 0 mm 4 mps 746 mmHg 16%
    10:00 +43°C° 0 mm 3 mps 746 mmHg 14%
    11:00 +44°C° 0 mm 3 mps 746 mmHg 13%
    12:00 +45°C° 0 mm 2 mps 746 mmHg 12%
    13:00 +45°C° 0 mm 2 mps 745 mmHg 12%
    14:00 +45°C° 0 mm 1 mps 745 mmHg 11%
    15:00 +45°C° 0 mm 1 mps 744 mmHg 11%
    16:00 +45°C° 0 mm 1 mps 744 mmHg 11%
    17:00 +45°C° 0 mm 2 mps 744 mmHg 11%
    18:00 +45°C° 0 mm 2 mps 744 mmHg 11%
    19:00 +45°C° 0 mm 2 mps 745 mmHg 12%
    20:00 +44°C° 0 mm 3 mps 745 mmHg 13%
    21:00 +43°C° 0 mm 3 mps 745 mmHg 14%
    22:00 +43°C° 0 mm 4 mps 745 mmHg 14%
    23:00 +42°C° 0 mm 4 mps 745 mmHg 15%

    Tomorrow, 26 September, Wednesday

    Time Temperature Precipitation Wind Pressure Humidity
    00:00 +41°C° 0 mm 4 mps 745 mmHg 15%
    01:00 +41°C° 0 mm 4 mps 745 mmHg 16%
    02:00 +40°C° 0 mm 4 mps 745 mmHg 16%
    03:00 +38°C° 0 mm 4 mps 744 mmHg 17%
    04:00 +38°C° 0 mm 4 mps 745 mmHg 17%
    05:00 +38°C° 0 mm 4 mps 745 mmHg 18%
    06:00 +37°C° 0 mm 4 mps 745 mmHg 18%
    07:00 +40°C° 0 mm 5 mps 745 mmHg 17%
    08:00 +41°C° 0 mm 5 mps 745 mmHg 16%
    09:00 +42°C° 0 mm 6 mps 746 mmHg 15%
    10:00 +44°C° 0 mm 6 mps 746 mmHg 14%
    11:00 +45°C° 0 mm 5 mps 745 mmHg 13%
    12:00 +46°C° 0 mm 5 mps 745 mmHg 12%
    13:00 +46°C° 0 mm 3 mps 745 mmHg 11%
    14:00 +46°C° 0 mm 2 mps 744 mmHg 11%
    15:00 +45°C° 0 mm 1 mps 743 mmHg 11%
    16:00 +45°C° 0 mm 1 mps 743 mmHg 11%
    17:00 +45°C° 0 mm 1 mps 743 mmHg 11%
    18:00 +44°C° 0 mm 1 mps 743 mmHg 11%
    19:00 +43°C° 0.3 mm 1 mps 744 mmHg 13%
    20:00 +42°C° 0.3 mm 2 mps 744 mmHg 15%
    21:00 +42°C° 0.3 mm 3 mps 745 mmHg 17%
    22:00 +41°C° 0.2 mm 4 mps 745 mmHg 18%
    23:00 +41°C° 0.2 mm 4 mps 745 mmHg 19%

    Day after tomorrow, 27 September, Thursday

    Time Temperature Precipitation Wind Pressure Humidity
    00:00 +40°C° 0.2 mm 5 mps 745 mmHg 20%
    01:00 +40°C° 0 mm 5 mps 744 mmHg 20%
    02:00 +39°C° 0 mm 5 mps 744 mmHg 21%
    03:00 +39°C° 0 mm 5 mps 744 mmHg 22%
    04:00 +37°C° 0 mm 5 mps 744 mmHg 23%
    05:00 +38°C° 0 mm 6 mps 744 mmHg 23%
    06:00 +36°C° 0 mm 6 mps 744 mmHg 24%
    07:00 +38°C° 0 mm 7 mps 745 mmHg 23%
    08:00 +39°C° 0 mm 8 mps 745 mmHg 22%
    09:00 +40°C° 0 mm 9 mps 746 mmHg 21%
    10:00 +41°C° 0 mm 8 mps 745 mmHg 19%
    11:00 +43°C° 0 mm 8 mps 745 mmHg 18%
    12:00 +45°C° 0 mm 7 mps 745 mmHg 16%
    13:00 +45°C° 0 mm 6 mps 744 mmHg 15%
    14:00 +45°C° 0 mm 5 mps 743 mmHg 15%
    15:00 +46°C° 0 mm 5 mps 743 mmHg 14%
    16:00 +44°C° 0 mm 4 mps 743 mmHg 14%
    17:00 +44°C° 0 mm 3 mps 743 mmHg 14%
    18:00 +44°C° 0 mm 3 mps 743 mmHg 14%
    19:00 +43°C° 0.1 mm 3 mps 743 mmHg 15%
    20:00 +42°C° 0.1 mm 4 mps 744 mmHg 17%
    21:00 +41°C° 0.1 mm 4 mps 744 mmHg 18%
    22:00 +41°C° 0.1 mm 4 mps 744 mmHg 19%
    23:00 +40°C° 0.1 mm 4 mps 744 mmHg 20%

    28 September, Friday

    Time Temperature Precipitation Wind Pressure Humidity
    00:00 +38°C° 0.1 mm 3 mps 744 mmHg 21%
    01:00 +38°C° 0.1 mm 4 mps 744 mmHg 22%
    02:00 +38°C° 0.1 mm 6 mps 743 mmHg 24%
    03:00 +38°C° 0.1 mm 7 mps 743 mmHg 25%
    04:00 +36°C° 0 mm 7 mps 743 mmHg 26%
    05:00 +37°C° 0 mm 8 mps 743 mmHg 28%
    06:00 +35°C° 0 mm 9 mps 744 mmHg 29%
    07:00 +37°C° 0 mm 9 mps 744 mmHg 29%
    08:00 +38°C° 0 mm 9 mps 745 mmHg 28%
    09:00 +38°C° 0 mm 9 mps 745 mmHg 27%
    10:00 +40°C° 0 mm 8 mps 745 mmHg 25%
    11:00 +41°C° 0 mm 7 mps 745 mmHg 23%
    12:00 +43°C° 0 mm 7 mps 744 mmHg 21%
    13:00 +42°C° 0 mm 6 mps 744 mmHg 20%
    14:00 +44°C° 0 mm 6 mps 743 mmHg 19%
    15:00 +43°C° 0 mm 5 mps 742 mmHg 18%
    16:00 +43°C° 0 mm 5 mps 742 mmHg 18%
    17:00 +43°C° 0 mm 4 mps 743 mmHg 18%
    18:00 +42°C° 0 mm 4 mps 743 mmHg 19%
    19:00 +42°C° 0.1 mm 5 mps 743 mmHg 20%
    20:00 +41°C° 0.1 mm 6 mps 744 mmHg 22%
    21:00 +40°C° 0.1 mm 7 mps 744 mmHg 23%
    22:00 +39°C° 0 mm 7 mps 744 mmHg 24%
    23:00 +39°C° 0 mm 7 mps 744 mmHg 26%

    29 September, Saturday

    Time Temperature Precipitation Wind Pressure Humidity
    00:00 +38°C° 0 mm 8 mps 744 mmHg 27%
    01:00 +37°C° 0.1 mm 8 mps 744 mmHg 28%
    02:00 +37°C° 0.1 mm 8 mps 743 mmHg 28%
    03:00 +35°C° 0.1 mm 8 mps 743 mmHg 29%
    04:00 +35°C° 0 mm 8 mps 744 mmHg 30%
    05:00 +34°C° 0 mm 8 mps 744 mmHg 32%
    06:00 +33°C° 0 mm 8 mps 744 mmHg 33%
    07:00 +34°C° 0 mm 8 mps 745 mmHg 31%
    08:00 +35°C° 0 mm 7 mps 745 mmHg 30%
    09:00 +36°C° 0 mm 6 mps 745 mmHg 29%
    10:00 +38°C° 0 mm 6 mps 745 mmHg 26%
    11:00 +40°C° 0 mm 6 mps 745 mmHg 24%
    12:00 +41°C° 0 mm 5 mps 744 mmHg 21%
    13:00 +42°C° 0 mm 5 mps 744 mmHg 20%
    14:00 +42°C° 0 mm 4 mps 743 mmHg 19%
    15:00 +43°C° 0 mm 3 mps 743 mmHg 18%
    16:00 +43°C° 0 mm 3 mps 743 mmHg 18%
    17:00 +42°C° 0 mm 3 mps 743 mmHg 18%
    18:00 +42°C° 0 mm 3 mps 743 mmHg 18%
    19:00 +41°C° 0 mm 4 mps 744 mmHg 20%
    20:00 +41°C° 0 mm 5 mps 744 mmHg 21%
    21:00 +40°C° 0 mm 6 mps 744 mmHg 22%
    22:00 +39°C° 0 mm 6 mps 744 mmHg 23%
    23:00 +39°C° 0 mm 6 mps 744 mmHg 23%

    30 September, Sunday

    Time Temperature Precipitation Wind Pressure Humidity
    00:00 +38°C° 0 mm 6 mps 744 mmHg 23%
    01:00 +38°C° 0 mm 6 mps 744 mmHg 24%
    02:00 +36°C° 0 mm 5 mps 744 mmHg 24%
    03:00 +36°C° 0 mm 5 mps 744 mmHg 24%
    04:00 +35°C° 0.1 mm 5 mps 744 mmHg 24%
    05:00 +35°C° 0.1 mm 5 mps 744 mmHg 25%
    06:00 +35°C° 0.1 mm 5 mps 745 mmHg 25%
    07:00 +36°C° 0.1 mm 5 mps 745 mmHg 24%
    08:00 +36°C° 0.1 mm 6 mps 746 mmHg 22%
    09:00 +38°C° 0.1 mm 6 mps 746 mmHg 21%
    10:00 +40°C° 0.1 mm 6 mps 746 mmHg 19%
    11:00 +41°C° 0.1 mm 6 mps 746 mmHg 18%
    12:00 +42°C° 0.1 mm 6 mps 745 mmHg 17%
    13:00 +43°C° 0 mm 5 mps 745 mmHg 16%
    14:00 +43°C° 0 mm 4 mps 744 mmHg 16%
    15:00 +44°C° 0 mm 3 mps 744 mmHg 15%
    16:00 +44°C° 0.1 mm 3 mps 744 mmHg 16%
    17:00 +43°C° 0.1 mm 4 mps 744 mmHg 16%
    18:00 +43°C° 0.1 mm 4 mps 744 mmHg 17%
    19:00 +42°C° 0.1 mm 5 mps 745 mmHg 18%
    20:00 +41°C° 0.1 mm 5 mps 745 mmHg 19%
    21:00 +40°C° 0.1 mm 5 mps 746 mmHg 20%
    22:00 +40°C° 0.2 mm 5 mps 746 mmHg 21%
    23:00 +39°C° 0.2 mm 5 mps 745 mmHg 21%
    Show more